EDT,Max TemperatureF,Mean TemperatureF,Min TemperatureF,Max Dew PointF,MeanDew PointF,Min DewpointF,Max Humidity, Mean Humidity, Min Humidity, Max Sea Level PressureIn, Mean Sea Level PressureIn, Min Sea Level PressureIn, Max VisibilityMiles, Mean VisibilityMiles, Min VisibilityMiles, Max Wind SpeedMPH, Mean Wind SpeedMPH, Max Gust SpeedMPH,PrecipitationIn, CloudCover, Events, WindDirDegrees
2013-4-1,54,44,34,48,41,30,100,80,59,30.02,29.91,29.86,10,10,7,20,9,27,T,4,Rain,279
2013-4-2,48,38,27,30,22,16,75,51,27,30.17,30.10,30.02,10,10,10,14,8,23,0.00,2,,298
2013-4-3,50,37,24,25,19,16,78,52,26,30.33,30.25,30.17,10,10,10,13,5,21,0.00,0,,314
2013-4-4,39,34,29,36,25,16,100,70,40,30.33,30.22,29.99,10,7,0,14,5,18,0.94,4,Snow,89
2013-4-5,57,44,31,43,36,30,100,70,40,30.07,29.98,29.94,10,7,0,14,5,22,0.04,3,Snow,293
2013-4-6,62,45,27,39,34,30,100,67,34,30.25,30.19,30.07,10,10,10,12,3,9,0.00,0,,138
2013-4-7,67,51,34,46,41,30,79,60,40,30.22,30.16,30.08,10,10,10,10,6,20,0.00,0,,174
2013-4-8,74,57,39,54,48,43,100,74,47,30.18,30.12,30.06,10,10,10,9,2,18,0.00,1,,210
2013-4-9,79,62,45,57,53,48,100,70,39,30.23,30.16,30.10,10,10,10,9,3,16,0.00,0,,236
2013-4-10,83,65,47,61,56,52,100,65,29,30.16,30.08,29.99,10,10,7,10,4,21,0.00,0,,235
2013-4-11,78,64,50,63,57,54,100,73,45,30.01,29.91,29.79,10,10,10,14,5,22,0.17,1,,190
2013-4-12,68,58,48,66,55,39,100,74,48,29.90,29.75,29.69,10,10,2,18,8,25,0.99,4,Rain-Thunderstorm,251
2013-4-13,67,56,45,43,38,34,71,50,29,30.05,29.96,29.88,10,10,10,17,9,28,0.00,1,,283
2013-4-14,72,54,36,46,41,36,85,58,31,30.14,30.08,30.05,10,10,10,13,4,20,0.02,1,Rain,214
2013-4-15,56,52,48,55,54,46,100,84,67,30.27,30.17,30.10,10,10,5,12,7,18,0.34,8,Rain,89
2013-4-16,77,65,53,61,59,55,100,76,52,30.33,30.27,30.21,10,9,5,9,3,,0.00,5,,158
2013-4-17,72,63,54,63,61,57,100,82,64,30.29,30.24,30.19,10,9,2,7,2,,0.13,2,Rain-Thunderstorm,264
2013-4-18,74,63,52,64,59,55,100,77,53,30.21,30.15,30.02,10,10,7,13,6,21,T,5,,157
2013-4-19,66,54,42,66,59,37,100,86,71,30.00,29.86,29.73,10,10,4,17,11,24,0.46,8,Rain-Thunderstorm,217
2013-4-20,55,45,34,37,32,28,76,57,38,30.32,30.13,29.95,10,10,10,17,10,27,0.00,2,,300
2013-4-21,55,42,29,37,34,28,92,70,47,30.50,30.44,30.33,10,10,10,12,5,17,0.00,0,,91
2013-4-22,58,46,34,37,33,27,85,59,32,30.48,30.39,30.30,10,10,10,12,8,18,0.00,0,,81
2013-4-23,68,54,39,50,43,37,89,63,36,30.32,30.22,30.11,10,10,7,9,4,,0.00,3,,125
2013-4-24,70,57,43,61,53,46,100,72,44,30.14,30.06,29.96,10,10,4,15,7,25,0.09,1,Rain-Thunderstorm,218
2013-4-25,61,47,33,45,34,27,92,60,27,30.35,30.26,30.14,10,10,10,12,6,22,0.00,2,,288
2013-4-26,63,48,33,41,36,30,85,60,34,30.46,30.40,30.35,10,10,10,6,2,,0.00,0,,324
2013-4-27,63,55,46,,,,,,,,,,,,,,,,0.01,,,
2013-4-28,53,51,48,,,,,,,,,,,,,,,,0.43,,,
2013-4-29,65,56,47,59,57,55,100,87,73,30.09,30.05,30.02,10,10,10,9,4,,T,7,,147
2013-4-30,68,61,53,59,57,55,100,83,66,30.26,30.16,30.07,10,8,1,12,6,18,0.00,7,,94